カタログに戻る

STARLINK-37818

運用中通信SSO
NORAD 69333·PAYLOAD·🇺🇸 United States

打ち上げ Jun 3, 2026 から Vandenberg Space Force Base

Loading…

次のパス (今後24時間)

TLE

最新Source: CelesTrak SupGP

元期: Sep 15, 2026, 03:30 UTC

1 69333C 26122E   26258.14631944 -.00034794  00000+0 -10797-2 0  2584
2 69333  97.2824 286.7924 0001081  82.5366 342.9822 15.33468664    13

AllMySatでSTARLINK-37818をリアルタイム追跡

Download on the App Store